Time,TemperatureF,DewpointF,PressureIn,WindDirection,WindDirectionDegrees,WindSpeedMPH,WindSpeedGustMPH,Humidity,HourlyPrecipIn,Conditions,Clouds,dailyrainin,SoftwareType,DateUTC
2013-04-06 00:02:00,53.2,47.8,30.14,NW,321,0.0,0.0,82,0.00,,,0.00,Wunderground v.1.15,2013-04-06 07:02:00,
2013-04-06 00:07:00,53.3,47.9,30.14,SSE,164,0.0,1.0,82,0.00,,,0.00,Wunderground v.1.15,2013-04-06 07:07:00,
2013-04-06 00:17:00,53.5,48.1,30.14,SSE,164,0.0,0.0,82,0.00,,,0.00,Wunderground v.1.15,2013-04-06 07:17:00,
2013-04-06 00:23:00,53.6,47.9,30.14,SSE,164,0.0,0.0,81,0.00,,,0.00,Wunderground v.1.15,2013-04-06 07:23:00,
2013-04-06 00:29:00,53.7,48.0,30.13,SSE,164,0.0,0.0,81,0.00,,,0.00,Wunderground v.1.15,2013-04-06 07:29:00,
2013-04-06 00:36:00,53.7,48.0,30.13,SSE,164,0.0,0.0,81,0.00,,,0.00,Wunderground v.1.15,2013-04-06 07:36:00,
2013-04-06 00:41:00,53.7,48.0,30.14,SSE,164,0.0,0.0,81,0.00,,,0.00,Wunderground v.1.15,2013-04-06 07:41:00,
2013-04-06 00:47:00,53.7,48.0,30.14,SSE,164,0.0,0.0,81,0.00,,,0.00,Wunderground v.1.15,2013-04-06 07:47:00,
2013-04-06 00:53:00,53.6,48.2,30.14,SSE,164,0.0,0.0,82,0.00,,,0.00,Wunderground v.1.15,2013-04-06 07:53:00,
2013-04-06 00:59:00,53.6,48.2,30.14,SSE,164,0.0,0.0,82,0.00,,,0.00,Wunderground v.1.15,2013-04-06 07:59:00,
2013-04-06 01:05:00,53.6,48.2,30.14,SSE,164,0.0,0.0,82,0.00,,,0.00,Wunderground v.1.15,2013-04-06 08:05:00,
2013-04-06 01:11:00,53.5,48.1,30.14,SSE,164,0.0,0.0,82,0.00,,,0.00,Wunderground v.1.15,2013-04-06 08:11:00,
2013-04-06 01:17:00,53.5,48.1,30.14,SSE,164,0.0,0.0,82,0.00,,,0.00,Wunderground v.1.15,2013-04-06 08:17:00,
2013-04-06 01:24:00,53.5,48.1,30.14,SSE,164,0.0,0.0,82,0.00,,,0.00,Wunderground v.1.15,2013-04-06 08:24:00,
2013-04-06 01:29:00,53.5,48.1,30.14,SSE,164,0.0,0.0,82,0.00,,,0.00,Wunderground v.1.15,2013-04-06 08:29:00,
2013-04-06 01:36:00,53.5,48.1,30.14,SSE,164,0.0,0.0,82,0.00,,,0.00,Wunderground v.1.15,2013-04-06 08:36:00,
2013-04-06 01:41:00,53.5,48.1,30.14,SSE,164,0.0,0.0,82,0.00,,,0.00,Wunderground v.1.15,2013-04-06 08:41:00,
2013-04-06 01:47:00,53.5,48.1,30.14,SSE,164,0.0,0.0,82,0.00,,,0.00,Wunderground v.1.15,2013-04-06 08:47:00,
2013-04-06 01:56:00,53.5,48.1,30.14,SSE,164,0.0,0.0,82,0.00,,,0.00,Wunderground v.1.15,2013-04-06 08:56:00,
2013-04-06 02:02:00,53.5,48.5,30.14,SSE,164,0.0,0.0,83,0.00,,,0.00,Wunderground v.1.15,2013-04-06 09:02:00,
2013-04-06 02:08:00,53.4,48.0,30.14,SSE,164,0.0,0.0,82,0.00,,,0.00,Wunderground v.1.15,2013-04-06 09:08:00,
2013-04-06 02:13:00,53.3,48.3,30.13,SSE,164,0.0,0.0,83,0.00,,,0.00,Wunderground v.1.15,2013-04-06 09:13:00,
2013-04-06 02:19:00,53.2,48.2,30.13,SSE,164,0.0,0.0,83,0.00,,,0.00,Wunderground v.1.15,2013-04-06 09:19:00,
2013-04-06 02:26:00,53.1,48.1,30.13,SSE,164,0.0,0.0,83,0.00,,,0.00,Wunderground v.1.15,2013-04-06 09:26:00,
2013-04-06 02:32:00,53.0,48.3,30.13,SSE,164,0.0,0.0,84,0.00,,,0.00,Wunderground v.1.15,2013-04-06 09:32:00,
2013-04-06 02:38:00,52.8,48.1,30.13,SSE,164,0.0,0.0,84,0.00,,,0.00,Wunderground v.1.15,2013-04-06 09:38:00,
2013-04-06 02:44:00,52.7,48.0,30.12,SSE,164,0.0,0.0,84,0.00,,,0.00,Wunderground v.1.15,2013-04-06 09:44:00,
2013-04-06 02:50:00,52.5,47.8,30.12,SSE,164,0.0,0.0,84,0.00,,,0.00,Wunderground v.1.15,2013-04-06 09:50:00,
2013-04-06 02:56:00,52.3,47.6,30.12,SSE,164,0.0,0.0,84,0.00,,,0.00,Wunderground v.1.15,2013-04-06 09:56:00,
2013-04-06 03:01:00,52.2,47.5,30.12,SSE,164,0.0,0.0,84,0.00,,,0.00,Wunderground v.1.15,2013-04-06 10:01:00,
2013-04-06 03:07:00,52.0,47.6,30.12,SSE,164,0.0,0.0,85,0.00,,,0.00,Wunderground v.1.15,2013-04-06 10:07:00,
2013-04-06 03:17:00,51.6,47.2,30.12,SSE,164,0.0,0.0,85,0.00,,,0.00,Wunderground v.1.15,2013-04-06 10:17:00,
2013-04-06 03:24:00,51.4,47.0,30.12,SSE,164,0.0,0.0,85,0.00,,,0.00,Wunderground v.1.15,2013-04-06 10:24:00,
2013-04-06 03:30:00,51.2,46.8,30.12,SSE,164,0.0,0.0,85,0.00,,,0.00,Wunderground v.1.15,2013-04-06 10:30:00,
2013-04-06 03:36:00,51.1,47.1,30.12,SSE,164,0.0,0.0,86,0.00,,,0.00,Wunderground v.1.15,2013-04-06 10:36:00,
2013-04-06 03:41:00,51.0,47.0,30.11,SSE,164,0.0,0.0,86,0.00,,,0.00,Wunderground v.1.15,2013-04-06 10:41:00,
2013-04-06 03:47:00,51.0,47.0,30.12,SSE,164,0.0,0.0,86,0.00,,,0.00,Wunderground v.1.15,2013-04-06 10:47:00,
2013-04-06 03:53:00,51.0,47.0,30.12,SSE,164,0.0,0.0,86,0.00,,,0.00,Wunderground v.1.15,2013-04-06 10:53:00,
2013-04-06 03:59:00,50.9,46.9,30.12,SSE,164,0.0,0.0,86,0.00,,,0.00,Wunderground v.1.15,2013-04-06 10:59:00,
2013-04-06 04:07:00,50.9,47.2,30.12,SSE,164,0.0,0.0,87,0.00,,,0.00,Wunderground v.1.15,2013-04-06 11:07:00,
2013-04-06 04:13:00,50.9,47.2,30.12,SSE,164,0.0,0.0,87,0.00,,,0.00,Wunderground v.1.15,2013-04-06 11:13:00,
2013-04-06 04:22:00,51.0,47.3,30.12,SSE,164,0.0,0.0,87,0.00,,,0.00,Wunderground v.1.15,2013-04-06 11:22:00,
2013-04-06 04:28:00,51.1,47.4,30.12,SSE,164,0.0,0.0,87,0.00,,,0.00,Wunderground v.1.15,2013-04-06 11:28:00,
2013-04-06 04:34:00,51.2,47.5,30.11,SSE,164,0.0,0.0,87,0.00,,,0.00,Wunderground v.1.15,2013-04-06 11:34:00,
2013-04-06 04:40:00,51.4,47.7,30.11,SSE,165,0.0,0.0,87,0.00,,,0.00,Wunderground v.1.15,2013-04-06 11:40:00,
2013-04-06 04:46:00,51.5,47.8,30.12,SSE,165,0.0,0.0,87,0.00,,,0.00,Wunderground v.1.15,2013-04-06 11:46:00,
2013-04-06 04:51:00,51.7,48.0,30.12,SSE,165,0.0,0.0,87,0.00,,,0.00,Wunderground v.1.15,2013-04-06 11:51:00,
2013-04-06 04:58:00,51.7,48.0,30.12,SSE,165,0.0,0.0,87,0.00,,,0.00,Wunderground v.1.15,2013-04-06 11:58:00,
2013-04-06 05:04:00,51.7,48.0,30.11,SSE,165,0.0,0.0,87,0.00,,,0.00,Wunderground v.1.15,2013-04-06 12:04:00,
2013-04-06 05:09:00,51.6,47.5,30.12,SSE,165,0.0,0.0,86,0.00,,,0.00,Wunderground v.1.15,2013-04-06 12:09:00,
2013-04-06 05:16:00,51.6,47.9,30.12,SSE,165,0.0,0.0,87,0.00,,,0.00,Wunderground v.1.15,2013-04-06 12:16:00,
2013-04-06 05:22:00,51.6,47.9,30.12,SSE,165,0.0,0.0,87,0.00,,,0.00,Wunderground v.1.15,2013-04-06 12:22:00,
2013-04-06 05:27:00,51.7,48.0,30.12,SSE,165,0.0,0.0,87,0.00,,,0.00,Wunderground v.1.15,2013-04-06 12:27:00,
2013-04-06 05:34:00,51.6,47.5,30.12,SSE,165,0.0,0.0,86,0.00,,,0.00,Wunderground v.1.15,2013-04-06 12:34:00,
2013-04-06 05:39:00,51.6,47.5,30.12,SSE,165,0.0,0.0,86,0.00,,,0.00,Wunderground v.1.15,2013-04-06 12:39:00,
2013-04-06 05:46:00,51.5,47.5,30.12,SSE,165,0.0,0.0,86,0.00,,,0.00,Wunderground v.1.15,2013-04-06 12:46:00,
2013-04-06 05:51:00,51.4,47.7,30.12,SSE,165,0.0,0.0,87,0.00,,,0.00,Wunderground v.1.15,2013-04-06 12:51:00,
2013-04-06 05:58:00,51.3,47.6,30.12,SSE,165,0.0,0.0,87,0.00,,,0.00,Wunderground v.1.15,2013-04-06 12:58:00,
2013-04-06 06:04:00,51.3,47.6,30.12,SSE,165,0.0,0.0,87,0.00,,,0.00,Wunderground v.1.15,2013-04-06 13:04:00,
2013-04-06 06:09:00,51.2,47.5,30.12,SSE,165,0.0,0.0,87,0.00,,,0.00,Wunderground v.1.15,2013-04-06 13:09:00,
2013-04-06 06:16:00,51.2,47.5,30.13,SSE,165,0.0,0.0,87,0.00,,,0.00,Wunderground v.1.15,2013-04-06 13:16:00,
2013-04-06 06:22:00,51.2,47.5,30.13,SSE,165,0.0,0.0,87,0.00,,,0.00,Wunderground v.1.15,2013-04-06 13:22:00,
2013-04-06 06:27:00,51.3,47.6,30.12,SSE,165,0.0,0.0,87,0.00,,,0.00,Wunderground v.1.15,2013-04-06 13:27:00,
2013-04-06 06:33:00,51.3,47.6,30.12,SSE,165,0.0,0.0,87,0.00,,,0.00,Wunderground v.1.15,2013-04-06 13:33:00,
2013-04-06 06:39:00,51.4,47.7,30.13,SSE,165,0.0,0.0,87,0.00,,,0.00,Wunderground v.1.15,2013-04-06 13:39:00,
2013-04-06 06:46:00,51.4,47.7,30.13,SSE,165,0.0,0.0,87,0.00,,,0.00,Wunderground v.1.15,2013-04-06 13:46:00,
2013-04-06 06:51:00,51.4,48.0,30.13,SSE,165,0.0,0.0,88,0.00,,,0.00,Wunderground v.1.15,2013-04-06 13:51:00,
2013-04-06 06:57:00,51.5,48.1,30.13,SSE,165,0.0,0.0,88,0.00,,,0.00,Wunderground v.1.15,2013-04-06 13:57:00,
2013-04-06 07:03:00,51.5,48.1,30.13,South,182,0.0,0.0,88,0.00,,,0.00,Wunderground v.1.15,2013-04-06 14:03:00,
2013-04-06 07:10:00,51.5,48.1,30.13,South,182,0.0,0.0,88,0.00,,,0.00,Wunderground v.1.15,2013-04-06 14:10:00,
2013-04-06 07:17:00,51.6,48.2,30.13,South,182,0.0,0.0,88,0.00,,,0.00,Wunderground v.1.15,2013-04-06 14:17:00,
2013-04-06 07:23:00,51.7,48.3,30.13,South,182,0.0,0.0,88,0.00,,,0.00,Wunderground v.1.15,2013-04-06 14:23:00,
2013-04-06 07:30:00,51.8,48.4,30.13,South,182,0.0,0.0,88,0.00,,,0.00,Wunderground v.1.15,2013-04-06 14:30:00,
2013-04-06 07:36:00,51.9,48.5,30.13,South,182,0.0,0.0,88,0.00,,,0.00,Wunderground v.1.15,2013-04-06 14:36:00,
2013-04-06 07:41:00,52.1,48.7,30.14,South,182,0.0,0.0,88,0.00,,,0.00,Wunderground v.1.15,2013-04-06 14:41:00,
2013-04-06 07:47:00,52.1,48.7,30.14,South,182,0.0,0.0,88,0.00,,,0.00,Wunderground v.1.15,2013-04-06 14:47:00,
2013-04-06 07:56:00,52.3,48.5,30.14,South,182,0.0,0.0,87,0.00,,,0.00,Wunderground v.1.15,2013-04-06 14:56:00,
2013-04-06 08:01:00,52.5,48.7,30.14,South,182,0.0,0.0,87,0.00,,,0.00,Wunderground v.1.15,2013-04-06 15:01:00,
2013-04-06 08:08:00,52.7,48.9,30.14,South,182,0.0,0.0,87,0.00,,,0.00,Wunderground v.1.15,2013-04-06 15:08:00,
2013-04-06 08:14:00,52.8,49.0,30.15,South,182,0.0,0.0,87,0.00,,,0.00,Wunderground v.1.15,2013-04-06 15:14:00,
2013-04-06 08:19:00,53.2,49.4,30.15,South,182,0.0,0.0,87,0.00,,,0.00,Wunderground v.1.15,2013-04-06 15:19:00,
2013-04-06 08:27:00,53.6,49.8,30.15,South,182,0.0,0.0,87,0.00,,,0.00,Wunderground v.1.15,2013-04-06 15:27:00,
2013-04-06 08:36:00,54.1,50.3,30.15,South,182,0.0,0.0,87,0.00,,,0.00,Wunderground v.1.15,2013-04-06 15:36:00,
2013-04-06 08:41:00,54.3,50.2,30.15,South,182,0.0,0.0,86,0.00,,,0.00,Wunderground v.1.15,2013-04-06 15:41:00,
2013-04-06 08:47:00,54.5,50.4,30.15,South,182,0.0,0.0,86,0.00,,,0.00,Wunderground v.1.15,2013-04-06 15:47:00,
2013-04-06 08:54:00,54.8,50.7,30.15,South,182,0.0,0.0,86,0.00,,,0.00,Wunderground v.1.15,2013-04-06 15:54:00,
2013-04-06 09:00:00,55.1,51.0,30.15,South,182,0.0,0.0,86,0.00,,,0.00,Wunderground v.1.15,2013-04-06 16:00:00,
2013-04-06 09:06:00,55.4,51.0,30.14,South,182,0.0,0.0,85,0.00,,,0.00,Wunderground v.1.15,2013-04-06 16:06:00,
2013-04-06 09:12:00,55.5,50.7,30.14,South,182,0.0,0.0,84,0.00,,,0.00,Wunderground v.1.15,2013-04-06 16:12:00,
2013-04-06 09:18:00,55.4,50.3,30.15,South,182,0.0,0.0,83,0.00,,,0.00,Wunderground v.1.15,2013-04-06 16:18:00,
2013-04-06 09:24:00,55.6,50.5,30.14,South,182,0.0,0.0,83,0.00,,,0.00,Wunderground v.1.15,2013-04-06 16:24:00,
2013-04-06 09:29:00,55.5,50.1,30.14,SE,135,0.0,0.0,82,0.00,,,0.00,Wunderground v.1.15,2013-04-06 16:29:00,
2013-04-06 09:36:00,55.3,49.9,30.15,SE,135,0.0,0.0,82,0.00,,,0.00,Wunderground v.1.15,2013-04-06 16:36:00,
2013-04-06 09:41:00,55.1,50.0,30.15,SE,135,0.0,0.0,83,0.00,,,0.00,Wunderground v.1.15,2013-04-06 16:41:00,
2013-04-06 09:47:00,55.2,50.1,30.14,SE,135,0.0,0.0,83,0.00,,,0.00,Wunderground v.1.15,2013-04-06 16:47:00,
2013-04-06 09:57:00,55.4,50.6,30.15,SE,135,0.0,0.0,84,0.00,,,0.00,Wunderground v.1.15,2013-04-06 16:57:00,
2013-04-06 10:08:00,56.0,51.6,30.14,SE,135,0.0,0.0,85,0.00,,,0.00,Wunderground v.1.15,2013-04-06 17:08:00,
2013-04-06 10:14:00,56.2,51.1,30.14,SE,137,0.0,0.0,83,0.00,,,0.00,Wunderground v.1.15,2013-04-06 17:14:00,
2013-04-06 10:19:00,56.4,51.3,30.15,SE,136,0.0,0.0,83,0.00,,,0.00,Wunderground v.1.15,2013-04-06 17:19:00,
2013-04-06 10:26:00,56.9,51.8,30.15,SE,136,0.0,0.0,83,0.00,,,0.00,Wunderground v.1.15,2013-04-06 17:26:00,
2013-04-06 10:32:00,57.3,52.2,30.15,SE,136,0.0,0.0,83,0.00,,,0.00,Wunderground v.1.15,2013-04-06 17:32:00,
2013-04-06 10:38:00,57.2,51.4,30.15,SE,138,0.0,0.0,81,0.00,,,0.00,Wunderground v.1.15,2013-04-06 17:38:00,
2013-04-06 10:44:00,57.5,52.4,30.15,SE,138,0.0,0.0,83,0.00,,,0.00,Wunderground v.1.15,2013-04-06 17:44:00,
2013-04-06 10:49:00,58.0,52.9,30.15,SE,138,0.0,0.0,83,0.00,,,0.00,Wunderground v.1.15,2013-04-06 17:49:00,
2013-04-06 10:56:00,58.5,53.0,30.15,SE,137,0.0,0.0,82,0.00,,,0.00,Wunderground v.1.15,2013-04-06 17:56:00,
2013-04-06 11:01:00,58.6,52.4,30.15,SE,137,0.0,0.0,80,0.00,,,0.00,Wunderground v.1.15,2013-04-06 18:01:00,
2013-04-06 11:08:00,59.0,53.2,30.15,SE,137,0.0,0.0,81,0.00,,,0.00,Wunderground v.1.15,2013-04-06 18:08:00,
2013-04-06 11:13:00,59.4,53.2,30.15,SE,137,0.0,0.0,80,0.00,,,0.00,Wunderground v.1.15,2013-04-06 18:13:00,
2013-04-06 11:19:00,59.5,52.3,30.15,SE,134,0.0,0.0,77,0.00,,,0.00,Wunderground v.1.15,2013-04-06 18:19:00,
2013-04-06 11:26:00,59.7,53.2,30.16,SE,134,0.0,0.0,79,0.00,,,0.00,Wunderground v.1.15,2013-04-06 18:26:00,
2013-04-06 11:31:00,60.5,54.3,30.16,SE,137,0.0,0.0,80,0.00,,,0.00,Wunderground v.1.15,2013-04-06 18:31:00,
2013-04-06 11:37:00,61.2,53.9,30.16,SE,137,0.0,0.0,77,0.00,,,0.00,Wunderground v.1.15,2013-04-06 18:37:00,
2013-04-06 11:46:00,62.9,55.6,30.15,SE,138,0.0,1.0,77,0.00,,,0.00,Wunderground v.1.15,2013-04-06 18:46:00,
2013-04-06 11:51:00,64.2,55.4,30.15,SE,140,0.0,0.0,73,0.00,,,0.00,Wunderground v.1.15,2013-04-06 18:51:00,
2013-04-06 11:58:00,64.5,54.1,30.14,SE,140,0.0,0.0,69,0.00,,,0.00,Wunderground v.1.15,2013-04-06 18:58:00,
2013-04-06 12:08:00,64.7,55.1,30.14,SE,143,0.0,0.0,71,0.00,,,0.00,Wunderground v.1.15,2013-04-06 19:08:00,
2013-04-06 12:14:00,65.7,55.2,30.14,SE,143,0.0,0.0,69,0.00,,,0.00,Wunderground v.1.15,2013-04-06 19:14:00,
2013-04-06 12:20:00,65.8,55.7,30.15,SSE,147,0.0,0.0,70,0.00,,,0.00,Wunderground v.1.15,2013-04-06 19:20:00,
2013-04-06 12:26:00,65.8,55.7,30.14,SSE,147,0.0,0.0,70,0.00,,,0.00,Wunderground v.1.15,2013-04-06 19:26:00,
2013-04-06 12:32:00,65.7,55.2,30.14,SE,146,0.0,0.0,69,0.00,,,0.00,Wunderground v.1.15,2013-04-06 19:32:00,
2013-04-06 12:37:00,65.6,55.5,30.13,NNW,330,0.0,2.0,70,0.00,,,0.00,Wunderground v.1.15,2013-04-06 19:37:00,
2013-04-06 12:46:00,65.6,55.5,30.13,SSW,198,0.0,0.0,70,0.00,,,0.00,Wunderground v.1.15,2013-04-06 19:46:00,
2013-04-06 12:51:00,64.8,54.0,30.13,NW,307,0.0,2.0,68,0.00,,,0.00,Wunderground v.1.15,2013-04-06 19:51:00,
2013-04-06 12:58:00,64.3,55.1,30.13,NW,310,1.0,2.0,72,0.00,,,0.00,Wunderground v.1.15,2013-04-06 19:58:00,
2013-04-06 13:06:00,64.3,53.9,30.12,SE,143,0.0,0.0,69,0.00,,,0.00,Wunderground v.1.15,2013-04-06 20:06:00,
2013-04-06 13:12:00,64.1,53.3,30.12,SE,142,0.0,0.0,68,0.00,,,0.00,Wunderground v.1.15,2013-04-06 20:12:00,
2013-04-06 13:18:00,64.2,53.0,30.12,SE,143,0.0,0.0,67,0.00,,,0.00,Wunderground v.1.15,2013-04-06 20:18:00,
2013-04-06 13:24:00,64.4,53.2,30.12,SE,144,0.0,1.0,67,0.00,,,0.00,Wunderground v.1.15,2013-04-06 20:24:00,
2013-04-06 13:29:00,64.7,52.7,30.12,SSE,148,0.0,0.0,65,0.00,,,0.00,Wunderground v.1.15,2013-04-06 20:29:00,
2013-04-06 13:36:00,65.0,52.9,30.11,SSE,151,0.0,3.0,65,0.00,,,0.00,Wunderground v.1.15,2013-04-06 20:36:00,
2013-04-06 13:42:00,65.5,52.1,30.11,SSW,212,0.0,3.0,62,0.00,,,0.00,Wunderground v.1.15,2013-04-06 20:42:00,
2013-04-06 13:48:00,66.1,51.8,30.11,SSW,212,0.0,3.0,60,0.00,,,0.00,Wunderground v.1.15,2013-04-06 20:48:00,
2013-04-06 13:54:00,66.5,49.3,30.11,NW,304,1.0,4.0,54,0.00,,,0.00,Wunderground v.1.15,2013-04-06 20:54:00,
2013-04-06 14:00:00,67.1,51.8,30.11,NW,304,1.0,1.0,58,0.00,,,0.00,Wunderground v.1.15,2013-04-06 21:00:00,
2013-04-06 14:06:00,67.4,52.1,30.10,West,271,0.0,1.0,58,0.00,,,0.00,Wunderground v.1.15,2013-04-06 21:06:00,
2013-04-06 14:12:00,67.7,52.4,30.10,South,184,0.0,0.0,58,0.00,,,0.00,Wunderground v.1.15,2013-04-06 21:12:00,
2013-04-06 14:17:00,68.0,53.1,30.11,West,275,1.0,1.0,59,0.00,,,0.00,Wunderground v.1.15,2013-04-06 21:17:00,
2013-04-06 14:24:00,68.4,53.0,30.10,SSW,196,1.0,1.0,58,0.00,,,0.00,Wunderground v.1.15,2013-04-06 21:24:00,
2013-04-06 14:30:00,69.1,54.2,30.10,SSW,196,0.0,0.0,59,0.00,,,0.00,Wunderground v.1.15,2013-04-06 21:30:00,
2013-04-06 14:36:00,69.4,51.5,30.10,WNW,287,1.0,3.0,53,0.00,,,0.00,Wunderground v.1.15,2013-04-06 21:36:00,
2013-04-06 14:41:00,69.5,52.6,30.10,SSW,195,0.0,2.0,55,0.00,,,0.00,Wunderground v.1.15,2013-04-06 21:41:00,
2013-04-06 14:48:00,69.1,51.8,30.10,South,175,1.0,2.0,54,0.00,,,0.00,Wunderground v.1.15,2013-04-06 21:48:00,
2013-04-06 14:56:00,69.4,53.5,30.10,SW,215,0.0,1.0,57,0.00,,,0.00,Wunderground v.1.15,2013-04-06 21:56:00,
2013-04-06 15:01:00,69.6,53.2,30.10,South,182,0.0,1.0,56,0.00,,,0.00,Wunderground v.1.15,2013-04-06 22:01:00,
2013-04-06 15:08:00,69.5,52.1,30.10,South,190,1.0,6.0,54,0.00,,,0.00,Wunderground v.1.15,2013-04-06 22:08:00,
2013-04-06 15:14:00,69.4,53.0,30.10,SSW,205,1.0,2.0,56,0.00,,,0.00,Wunderground v.1.15,2013-04-06 22:14:00,
2013-04-06 15:20:00,69.6,52.7,30.10,SSW,213,1.0,3.0,55,0.00,,,0.00,Wunderground v.1.15,2013-04-06 22:20:00,
2013-04-06 15:26:00,69.9,54.0,30.10,SW,214,1.0,4.0,57,0.00,,,0.00,Wunderground v.1.15,2013-04-06 22:26:00,
2013-04-06 15:32:00,70.5,55.5,30.09,SSW,206,0.0,1.0,59,0.00,,,0.00,Wunderground v.1.15,2013-04-06 22:32:00,
2013-04-06 15:37:00,69.8,52.9,30.09,SSW,211,1.0,1.0,55,0.00,,,0.00,Wunderground v.1.15,2013-04-06 22:37:00,
2013-04-06 15:47:00,69.4,54.9,30.09,WSW,243,1.0,1.0,60,0.00,,,0.00,Wunderground v.1.15,2013-04-06 22:47:00,
2013-04-06 15:56:00,70.1,56.0,30.09,WNW,290,1.0,3.0,61,0.00,,,0.00,Wunderground v.1.15,2013-04-06 22:56:00,
2013-04-06 16:02:00,70.6,56.0,30.09,SSW,195,0.0,1.0,60,0.00,,,0.00,Wunderground v.1.15,2013-04-06 23:02:00,
2013-04-06 16:08:00,71.0,55.9,30.09,SSW,195,0.0,2.0,59,0.00,,,0.00,Wunderground v.1.15,2013-04-06 23:08:00,
2013-04-06 16:18:00,70.4,55.8,30.09,SW,218,1.0,1.0,60,0.00,,,0.00,Wunderground v.1.15,2013-04-06 23:18:00,
2013-04-06 16:23:00,69.4,54.4,30.09,South,188,1.0,1.0,59,0.00,,,0.00,Wunderground v.1.15,2013-04-06 23:23:00,
2013-04-06 16:29:00,69.0,55.9,30.08,SSW,198,1.0,3.0,63,0.00,,,0.00,Wunderground v.1.15,2013-04-06 23:29:00,
2013-04-06 16:36:00,68.8,54.8,30.08,South,172,1.0,3.0,61,0.00,,,0.00,Wunderground v.1.15,2013-04-06 23:36:00,
2013-04-06 16:41:00,68.3,54.3,30.08,SW,224,1.0,1.0,61,0.00,,,0.00,Wunderground v.1.15,2013-04-06 23:41:00,
2013-04-06 16:48:00,68.0,54.0,30.08,SSW,208,1.0,1.0,61,0.00,,,0.00,Wunderground v.1.15,2013-04-06 23:48:00,
2013-04-06 16:54:00,67.9,54.8,30.08,WSW,248,1.0,2.0,63,0.00,,,0.00,Wunderground v.1.15,2013-04-06 23:54:00,
2013-04-06 17:00:00,67.7,53.8,30.08,SSW,194,1.0,2.0,61,0.00,,,0.00,Wunderground v.1.15,2013-04-07 00:00:00,
2013-04-06 17:06:00,67.5,54.0,30.08,SSW,212,1.0,2.0,62,0.00,,,0.00,Wunderground v.1.15,2013-04-07 00:06:00,
2013-04-06 17:11:00,67.2,53.3,30.08,SW,225,1.0,1.0,61,0.00,,,0.00,Wunderground v.1.15,2013-04-07 00:11:00,
2013-04-06 17:18:00,66.5,52.6,30.08,ESE,112,1.0,2.0,61,0.00,,,0.00,Wunderground v.1.15,2013-04-07 00:18:00,
2013-04-06 17:23:00,65.7,52.8,30.08,West,265,2.0,2.0,63,0.00,,,0.00,Wunderground v.1.15,2013-04-07 00:23:00,
2013-04-06 17:29:00,65.3,52.8,30.08,SSW,208,1.0,3.0,64,0.00,,,0.00,Wunderground v.1.15,2013-04-07 00:29:00,
2013-04-06 17:37:00,65.0,52.5,30.07,SSE,161,1.0,3.0,64,0.00,,,0.00,Wunderground v.1.15,2013-04-07 00:37:00,
2013-04-06 17:44:00,64.6,51.3,30.08,SSW,208,1.0,2.0,62,0.00,,,0.00,Wunderground v.1.15,2013-04-07 00:44:00,
2013-04-06 17:50:00,64.5,51.2,30.08,SW,220,1.0,1.0,62,0.00,,,0.00,Wunderground v.1.15,2013-04-07 00:50:00,
2013-04-06 17:57:00,64.1,51.2,30.08,SSW,213,1.0,1.0,63,0.00,,,0.00,Wunderground v.1.15,2013-04-07 00:57:00,
2013-04-06 18:04:00,63.7,50.4,30.08,WNW,285,1.0,1.0,62,0.00,,,0.00,Wunderground v.1.15,2013-04-07 01:04:00,
2013-04-06 18:09:00,63.3,50.1,30.08,SW,234,0.0,0.0,62,0.00,,,0.00,Wunderground v.1.15,2013-04-07 01:09:00,
2013-04-06 18:16:00,62.9,50.5,30.08,SSW,208,0.0,1.0,64,0.00,,,0.00,Wunderground v.1.15,2013-04-07 01:16:00,
2013-04-06 18:21:00,62.5,49.7,30.08,SSW,209,0.0,1.0,63,0.00,,,0.00,Wunderground v.1.15,2013-04-07 01:21:00,
2013-04-06 18:28:00,62.1,49.8,30.07,SSE,158,1.0,1.0,64,0.00,,,0.00,Wunderground v.1.15,2013-04-07 01:28:00,
2013-04-06 18:34:00,61.7,49.8,30.07,SSW,202,1.0,1.0,65,0.00,,,0.00,Wunderground v.1.15,2013-04-07 01:34:00,
2013-04-06 18:39:00,61.4,49.5,30.08,South,173,0.0,0.0,65,0.00,,,0.00,Wunderground v.1.15,2013-04-07 01:39:00,
2013-04-06 18:46:00,61.1,49.7,30.08,SW,217,0.0,1.0,66,0.00,,,0.00,Wunderground v.1.15,2013-04-07 01:46:00,
2013-04-06 18:51:00,60.8,49.4,30.08,SSW,209,0.0,0.0,66,0.00,,,0.00,Wunderground v.1.15,2013-04-07 01:51:00,
2013-04-06 18:58:00,60.6,49.6,30.08,South,190,0.0,0.0,67,0.00,,,0.00,Wunderground v.1.15,2013-04-07 01:58:00,
2013-04-06 19:04:00,60.3,49.7,30.08,WNW,287,0.0,0.0,68,0.00,,,0.00,Wunderground v.1.15,2013-04-07 02:04:00,
2013-04-06 19:10:00,60.1,49.5,30.08,WNW,287,0.0,0.0,68,0.00,,,0.00,Wunderground v.1.15,2013-04-07 02:10:00,
2013-04-06 19:16:00,59.7,49.1,30.08,South,169,0.0,0.0,68,0.00,,,0.00,Wunderground v.1.15,2013-04-07 02:16:00,
2013-04-06 19:21:00,59.5,48.9,30.09,WNW,289,1.0,1.0,68,0.00,,,0.00,Wunderground v.1.15,2013-04-07 02:21:00,
2013-04-06 19:28:00,59.0,48.8,30.09,WNW,285,1.0,2.0,69,0.00,,,0.00,Wunderground v.1.15,2013-04-07 02:28:00,
2013-04-06 19:33:00,59.0,48.8,30.09,WNW,285,0.0,0.0,69,0.00,,,0.00,Wunderground v.1.15,2013-04-07 02:33:00,
2013-04-06 19:39:00,58.8,49.0,30.09,WNW,285,0.0,2.0,70,0.00,,,0.00,Wunderground v.1.15,2013-04-07 02:39:00,
2013-04-06 19:47:00,58.4,48.3,30.09,NW,306,1.0,4.0,69,0.00,,,0.00,Wunderground v.1.15,2013-04-07 02:47:00,
2013-04-06 19:54:00,58.3,48.6,30.09,NNW,342,1.0,1.0,70,0.00,,,0.00,Wunderground v.1.15,2013-04-07 02:54:00,
2013-04-06 19:59:00,58.1,48.4,30.09,NNW,343,0.0,0.0,70,0.00,,,0.00,Wunderground v.1.15,2013-04-07 02:59:00,
2013-04-06 20:06:00,57.8,48.1,30.09,NNW,343,0.0,1.0,70,0.00,,,0.00,Wunderground v.1.15,2013-04-07 03:06:00,
2013-04-06 20:11:00,57.5,47.8,30.09,NNW,343,0.0,2.0,70,0.00,,,0.00,Wunderground v.1.15,2013-04-07 03:11:00,
2013-04-06 20:18:00,57.5,47.8,30.09,NNW,342,0.0,2.0,70,0.00,,,0.00,Wunderground v.1.15,2013-04-07 03:18:00,
2013-04-06 20:26:00,57.4,47.7,30.09,NW,319,1.0,1.0,70,0.00,,,0.00,Wunderground v.1.15,2013-04-07 03:26:00,
2013-04-06 20:32:00,57.3,47.6,30.09,NW,319,0.0,1.0,70,0.00,,,0.00,Wunderground v.1.15,2013-04-07 03:32:00,
2013-04-06 20:37:00,57.0,47.3,30.10,NW,319,0.0,1.0,70,0.00,,,0.00,Wunderground v.1.15,2013-04-07 03:37:00,
2013-04-06 20:44:00,56.8,47.1,30.09,NW,319,0.0,0.0,70,0.00,,,0.00,Wunderground v.1.15,2013-04-07 03:44:00,
2013-04-06 20:50:00,56.6,46.9,30.10,NW,309,0.0,0.0,70,0.00,,,0.00,Wunderground v.1.15,2013-04-07 03:50:00,
2013-04-06 20:58:00,56.2,46.9,30.10,NW,309,0.0,0.0,71,0.00,,,0.00,Wunderground v.1.15,2013-04-07 03:58:00,
2013-04-06 21:02:00,55.9,47.0,30.10,NW,309,0.0,0.0,72,0.00,,,0.00,Wunderground v.1.15,2013-04-07 04:02:00,
2013-04-06 21:04:00,55.8,47.3,30.10,NW,309,0.0,0.0,73,0.00,,,0.00,Wunderground v.1.15,2013-04-07 04:04:00,
2013-04-06 21:09:00,55.4,46.9,30.10,NW,309,0.0,0.0,73,0.00,,,0.00,Wunderground v.1.15,2013-04-07 04:09:00,
2013-04-06 21:17:00,55.0,47.2,30.11,NW,309,0.0,0.0,75,0.00,,,0.00,Wunderground v.1.15,2013-04-07 04:17:00,
2013-04-06 21:19:00,54.9,47.1,30.11,NW,309,0.0,0.0,75,0.00,,,0.00,Wunderground v.1.15,2013-04-07 04:19:00,
2013-04-06 21:27:00,54.7,47.3,30.12,NW,309,0.0,0.0,76,0.00,,,0.00,Wunderground v.1.15,2013-04-07 04:27:00,
2013-04-06 21:36:00,54.5,47.4,30.12,NW,309,0.0,0.0,77,0.00,,,0.00,Wunderground v.1.15,2013-04-07 04:36:00,
2013-04-06 21:41:00,54.4,47.7,30.12,NW,309,0.0,0.0,78,0.00,,,0.00,Wunderground v.1.15,2013-04-07 04:41:00,
2013-04-06 21:48:00,54.4,47.7,30.12,NW,309,0.0,0.0,78,0.00,,,0.00,Wunderground v.1.15,2013-04-07 04:48:00,
2013-04-06 21:56:00,54.2,47.8,30.12,NW,309,0.0,0.0,79,0.00,,,0.00,Wunderground v.1.15,2013-04-07 04:56:00,
2013-04-06 22:02:00,54.0,48.0,30.12,NW,309,0.0,0.0,80,0.00,,,0.00,Wunderground v.1.15,2013-04-07 05:02:00,
2013-04-06 22:07:00,53.7,47.7,30.13,NW,309,0.0,0.0,80,0.00,,,0.00,Wunderground v.1.15,2013-04-07 05:07:00,
2013-04-06 22:14:00,53.4,47.4,30.13,NW,309,0.0,0.0,80,0.00,,,0.00,Wunderground v.1.15,2013-04-07 05:14:00,
2013-04-06 22:20:00,53.1,47.4,30.13,NW,309,0.0,0.0,81,0.00,,,0.00,Wunderground v.1.15,2013-04-07 05:20:00,
2013-04-06 22:27:00,52.9,47.6,30.13,NW,309,0.0,0.0,82,0.00,,,0.00,Wunderground v.1.15,2013-04-07 05:27:00,
2013-04-06 22:33:00,52.8,47.5,30.13,NW,309,0.0,0.0,82,0.00,,,0.00,Wunderground v.1.15,2013-04-07 05:33:00,
2013-04-06 22:39:00,52.7,47.7,30.13,NW,309,0.0,0.0,83,0.00,,,0.00,Wunderground v.1.15,2013-04-07 05:39:00,
2013-04-06 22:46:00,52.6,47.6,30.14,NW,309,0.0,0.0,83,0.00,,,0.00,Wunderground v.1.15,2013-04-07 05:46:00,
2013-04-06 22:51:00,52.6,47.6,30.13,NW,309,0.0,0.0,83,0.00,,,0.00,Wunderground v.1.15,2013-04-07 05:51:00,
2013-04-06 22:58:00,52.6,47.6,30.13,NW,309,0.0,0.0,83,0.00,,,0.00,Wunderground v.1.15,2013-04-07 05:58:00,
2013-04-06 23:06:00,52.5,47.8,30.13,NW,309,0.0,0.0,84,0.00,,,0.00,Wunderground v.1.15,2013-04-07 06:06:00,
2013-04-06 23:12:00,52.5,47.8,30.13,NW,309,0.0,0.0,84,0.00,,,0.00,Wunderground v.1.15,2013-04-07 06:12:00,
2013-04-06 23:18:00,52.5,47.8,30.13,NW,309,0.0,0.0,84,0.00,,,0.00,Wunderground v.1.15,2013-04-07 06:18:00,
2013-04-06 23:23:00,52.5,47.8,30.13,NW,309,0.0,0.0,84,0.00,,,0.00,Wunderground v.1.15,2013-04-07 06:23:00,
2013-04-06 23:29:00,52.5,47.8,30.14,NW,309,0.0,0.0,84,0.00,,,0.00,Wunderground v.1.15,2013-04-07 06:29:00,
2013-04-06 23:36:00,52.5,48.1,30.14,NW,309,0.0,0.0,85,0.00,,,0.00,Wunderground v.1.15,2013-04-07 06:36:00,
2013-04-06 23:42:00,52.5,48.1,30.14,NW,309,0.0,0.0,85,0.00,,,0.00,Wunderground v.1.15,2013-04-07 06:42:00,
2013-04-06 23:47:00,52.5,47.8,30.15,NW,309,0.0,0.0,84,0.00,,,0.00,Wunderground v.1.15,2013-04-07 06:47:00,
2013-04-06 23:53:00,52.4,47.7,30.15,NW,309,0.0,0.0,84,0.00,,,0.00,Wunderground v.1.15,2013-04-07 06:53:00,
2013-04-06 23:59:00,52.4,48.0,30.15,NW,309,0.0,0.0,85,0.00,,,0.00,Wunderground v.1.15,2013-04-07 06:59:00,